Weather History for Tucumcari, NM

Change the Weather History Date:

Monday, May 13, 2013

  Actual Average Record
Temperature  
Mean Temperature 76 °F -  
Max Temperature 91 °F 80 °F 98 °F (1956)
Min Temperature 60 °F 48 °F 35 °F (1953)
Cooling Degree Days 10    
Growing Degree Days 26 (Base 50)    
Moisture  
Dew Point 28 °F    
Average Humidity 20    
Maximum Humidity 33    
Minimum Humidity 10    
Precipitation  
Precipitation 0.00 in - - ()
Sea Level Pressure  
Sea Level Pressure 30.01 in    
Wind  
Wind Speed 11 mph (SW)    
Max Wind Speed 23 mph    
Max Gust Speed 30 mph    
Visibility 10 miles    
Events      
Averages and records for this station are not official NWS values.
T = Trace of Precipitation, MM = Missing Value Source: NWS Daily Summary

Daily Weather History Graph

Daily Weather History Graph

Search for Another Location

Airport:

Trip Planner

Search our weather history database for the weather conditions in past years. The results will help you decide how hot, cold, wet, or windy it might be!

Date:

Astronomy

May. 13, 2013 Rise Set
Actual Time 5:51 AM MDT 7:50 PM MDT
Civil Twilight 5:23 AM MDT 8:18 PM MDT
Nautical Twilight 4:49 AM MDT 8:52 PM MDT
Astronomical Twilight 4:13 AM MDT 9:29 PM MDT
Moon 8:40 AM MDT (5/13) 11:00 PM MDT (5/13)
Length of Visible Light 14h 54m
Length of Day
13h 58m
Waxing Crescent, 12% of the Moon is Illuminated
May 13
Waxing Crescent
May 17
First Quarter
May 24
Full
May 31
Last Quarter
Jun 8
New

Hourly Weather History & Observations

Time (MDT) Temp. Dew Point Humidity Pressure Visibility Wind Dir Wind Speed Gust Speed Precip Events Conditions
12:53 AM 62.1 °F 28.0 °F 28% 30.04 in 10.0 mi SW 5.8 mph - N/A   Clear
1:53 AM 62.1 °F 28.9 °F 29% 30.04 in 10.0 mi SW 3.5 mph - N/A   Clear
2:53 AM 63.0 °F 30.9 °F 30% 30.03 in 10.0 mi SW 11.5 mph - N/A   Clear
3:53 AM 62.1 °F 30.9 °F 31% 30.03 in 10.0 mi WSW 13.8 mph - N/A   Clear
4:53 AM 61.0 °F 30.9 °F 32% 30.02 in 10.0 mi WSW 13.8 mph - N/A   Clear
5:53 AM 60.1 °F 30.9 °F 33% 30.03 in 10.0 mi WSW 16.1 mph - N/A   Clear
6:53 AM 63.0 °F 32.0 °F 31% 30.05 in 10.0 mi West 11.5 mph - N/A   Clear
7:53 AM 69.1 °F 32.0 °F 25% 30.06 in 10.0 mi SW 18.4 mph 29.9 mph N/A   Clear
8:53 AM 75.0 °F 32.0 °F 21% 30.07 in 10.0 mi SW 18.4 mph - N/A   Clear
9:53 AM 79.0 °F 32.0 °F 18% 30.05 in 10.0 mi SSW 12.7 mph - N/A   Clear
10:53 AM 82.9 °F 30.9 °F 15% 30.04 in 10.0 mi WSW 11.5 mph - N/A   Clear
11:53 AM 86.0 °F 30.0 °F 13% 30.02 in 10.0 mi SSW 10.4 mph 17.3 mph N/A   Clear
12:53 PM 86.0 °F 28.0 °F 12% 30.00 in 10.0 mi Variable 6.9 mph - N/A   Clear
1:26 PM 87.8 °F 26.6 °F 11% 30.17 in 10.0 mi South 16.1 mph 19.6 mph N/A   Clear
2:53 PM 91.0 °F 26.1 °F 10% 29.96 in 10.0 mi SW 23.0 mph 28.8 mph N/A   Clear
3:53 PM 89.1 °F 26.1 °F 10% 29.95 in 10.0 mi South 13.8 mph 24.2 mph N/A   Clear
4:00 PM 89.6 °F 26.6 °F 10% 30.13 in 10.0 mi SW 15.0 mph 23.0 mph N/A   Clear
4:53 PM 88.0 °F 25.0 °F 10% 29.94 in 10.0 mi SW 15.0 mph 18.4 mph N/A   Clear
6:53 PM 84.9 °F 24.1 °F 11% 29.92 in 10.0 mi SSW 17.3 mph 24.2 mph N/A   Clear
7:53 PM 79.0 °F 25.0 °F 14% 29.93 in 10.0 mi SSW 12.7 mph - N/A   Clear
8:53 PM 73.9 °F 25.0 °F 16% 29.94 in 10.0 mi SSW 10.4 mph - N/A   Clear
9:53 PM 68.0 °F 25.0 °F 20% 29.96 in 10.0 mi SSW 6.9 mph - N/A   Clear
10:53 PM 69.1 °F 25.0 °F 19% 29.96 in 10.0 mi SSW 8.1 mph - N/A   Clear
11:53 PM 64.0 °F 24.1 °F 22% 29.96 in 10.0 mi SW 9.2 mph - N/A   Clear